Location: Newark
(49.7131°N, 2.5431°E)
Time: 02:25:13
(UTC+00:00)

ISS - Visible Passes

Search period start: 22 September 2020 00:00
Search period end: 02 October 2020 00:00
Orbit: 419 x 420 km, 51.6° (Epoch: 22 September)

Date Brightness Start Highest point End Pass type
(mag) Time Alt. Az. Time Alt. Az. Time Alt. Az.
22 Sep -3.7 19:42:11 10° W 19:45:33 72° NNW 19:45:57 62° NE visible
23 Sep -3.8 18:54:44 10° WSW 18:58:07 86° NNW 19:00:24 19° ENE visible
23 Sep -1.5 20:31:45 10° WNW 20:33:22 25° WNW 20:33:22 25° WNW visible
24 Sep -3.7 18:07:20 10° WSW 18:10:42 75° SSE 18:14:05 10° ENE visible
24 Sep -3.5 19:44:16 10° W 19:47:37 60° N 19:47:45 59° NNE visible
25 Sep -3.5 18:56:47 10° W 19:00:08 63° N 19:02:06 22° ENE visible
25 Sep -1.2 20:33:45 10° WNW 20:35:03 21° WNW 20:35:03 21° WNW visible
26 Sep -3.6 18:09:16 10° W 18:12:38 71° NNW 18:16:01 10° ENE visible
26 Sep -3.4 19:46:17 10° WNW 19:49:22 62° NNW 19:49:22 62° NNW visible
27 Sep -3.5 18:58:48 10° WNW 19:02:09 61° N 19:03:40 29° ENE visible
27 Sep -0.9 20:35:40 10° WNW 20:36:38 18° WNW 20:36:38 18° WNW visible
28 Sep -3.4 18:11:16 10° W 18:14:37 60° N 18:17:58 10° E visible
28 Sep -3.1 19:48:11 10° WNW 19:50:56 55° WNW 19:50:56 55° WNW visible
29 Sep -3.8 19:00:42 10° WNW 19:04:05 77° NNE 19:05:14 38° E visible
29 Sep -0.6 20:37:40 10° W 20:38:11 13° W 20:38:11 13° W visible
30 Sep -3.6 18:13:12 10° WNW 18:16:34 66° N 18:19:33 13° E visible
30 Sep -2.4 19:50:05 10° WNW 19:52:31 37° WSW 19:52:31 37° WSW visible
01 Oct -3.6 19:02:33 10° WNW 19:05:55 66° SSW 19:06:52 41° SE visible
